Preview of NWS' New Version of Forecast
This preview is not operational and should not be used for support decisions.

Regional Weather Roundup (RWR)

Issued by National Weather Service (NWS)

                            
000
ASUS43 KLSX 180757
RWRMO 

WEATHER SUMMARY FOR MISSOURI
NATIONAL WEATHER SERVICE SPRINGFIELD MO
300 AM CDT MON MAR 18 2019

NOTE: "FAIR" INDICATES FEW OR NO CLOUDS BELOW 12,000 FEET WITH NO
       SIGNIFICANT WEATHER AND/OR OBSTRUCTIONS TO VISIBILITY.
       CURRENT SKY AND/OR WEATHER CONDITIONS ARE NOT AVAILABLE FOR
       CHILLICOTHE AND FARMINGTON.

MOZ001>031-035>038-043-044-053-054-180900-
...NORTHERN AND WESTERN MISSOURI...
  
CITY           SKY/WX    TMP DP  RH WIND       PRES   REMARKS
KANSAS CTY INT CLOUDY    39  28  64 N6        30.38R                  
LEE'S SUMMIT   MOCLDY    41  28  60 N3        30.38R                  
ST JOSEPH      CLOUDY    38  34  85 N3        30.41R                  
CHILLICOTHE      N/A     31  28  89 N3        30.41R                  
     
$$
MOZ066>068-077>081-088>096-101>105-180900-
...SOUTHWEST MISSOURI...
  
CITY           SKY/WX    TMP DP  RH WIND       PRES   REMARKS
SPRINGFIELD    CLOUDY    41  24  51 CALM      30.35R                  
JOPLIN         CLOUDY    45  24  43 E6        30.34S                  
               
$$
MOZ032>034-039>042-045>050-055>058-069>072-180900-
...CENTRAL MISSOURI...  
  
CITY           SKY/WX    TMP DP  RH WIND       PRES   REMARKS
COLUMBIA       NOT AVBL                                               
JEFFERSON CITY CLOUDY    37  31  78 CALM      30.38S                  
ROLLA          CLOUDY    37  26  64 W5        30.36S                  
SEDALIA        CLOUDY    39  30  70 NE6       30.37S                  
WARRENSBURG    PTCLDY    39  30  70 CALM      30.38R                  
               
$$
MOZ051-052-059>065-180900-
...EAST CENTRAL MISSOURI...
  
CITY           SKY/WX    TMP DP  RH WIND       PRES   REMARKS
ST LOUIS INTL  PTCLDY    35  27  72 SW3       30.37S                  
                   
$$
MOZ072>076-082>087-097>100-106>115-180900-
...SOUTH CENTRAL AND SOUTHEAST MISSOURI...
  
CITY           SKY/WX    TMP DP  RH WIND       PRES   REMARKS
CAPE GIRARDEAU FAIR      33  30  88 CALM      30.36R                  
POPLAR BLUFF   CLOUDY    42  29  59 NE6       30.35S                  
WEST PLAINS    CLOUDY    43  25  49 NE6       30.34S                  
                                       
$$